This is the latest recevied weather packets stored in our database for station/object GBTWP-2. If no packets are shown the sender has not sent any weather packets the latest 10 day(s).
| Time | Temp. | Humidity | Pressure | Rain* | Wind** | Luminosity | Snow |
|---|---|---|---|---|---|---|---|
| 1777928702 | 23.89° C | 34% | 1002.3 hPa | 0 mm | - | 153 W/m² | - |
| 1777928402 | 23.89° C | 32% | 1002.1 hPa | 0 mm | - | 82 W/m² | - |
| 1777927501 | 23.89° C | 31% | 1002.3 hPa | 0 mm | - | 147 W/m² | - |
| 1777927202 | 24.44° C | 31% | 1002.4 hPa | 0 mm | - | 198 W/m² | - |
| 1777925702 | 24.44° C | 31% | 1002.7 hPa | 0 mm | - | 209 W/m² | - |
| 1777925102 | 24.44° C | 30% | 1002.6 hPa | 0 mm | - | 114 W/m² | - |
| 1777924502 | 23.89° C | 31% | 1002.7 hPa | 0 mm | - | 190 W/m² | - |
| 1777924201 | 24.44° C | 29% | 1002.7 hPa | 0 mm | - | 153 W/m² | - |
| 1777923902 | 24.44° C | 28% | 1002.9 hPa | 0 mm | - | 312 W/m² | - |
| 1777923002 | 23.89° C | 29% | 1003 hPa | 0 mm | - | 239 W/m² | - |
| 1777922402 | 23.89° C | 29% | 1003 hPa | 0 mm | - | 407 W/m² | - |
| 1777922101 | 24.44° C | 28% | 1002.9 hPa | 0 mm | - | 272 W/m² | - |
| 1777921802 | 24.44° C | 31% | 1003 hPa | 0 mm | - | 358 W/m² | - |
| 1777921501 | 23.89° C | 30% | 1003.1 hPa | 0 mm | - | 198 W/m² | - |
| 1777920902 | 23.89° C | 30% | 1003.1 hPa | 0 mm | - | 132 W/m² | - |
| 1777920602 | 23.89° C | 31% | 1003.1 hPa | 0 mm | - | 224 W/m² | - |
| 1777920001 | 23.89° C | 31% | 1003.3 hPa | 0 mm | - | 139 W/m² | - |
| 1777919702 | 23.89° C | 33% | 1003.2 hPa | 0 mm | - | 195 W/m² | - |
| 1777919102 | 23.33° C | 29% | 1003.5 hPa | 0 mm | - | 157 W/m² | - |
| 1777918502 | 23.33° C | 30% | 1003.5 hPa | 0 mm | - | 70 W/m² | - |
| 1777917602 | 23.33° C | 31% | 1003.5 hPa | 0 mm | - | 166 W/m² | - |
| 1777917301 | 22.78° C | 31% | 1003.6 hPa | 0 mm | - | 71 W/m² | - |
| 1777917002 | 23.33° C | 30% | 1003.7 hPa | 0 mm | - | 60 W/m² | - |
| 1777916402 | 22.78° C | 30% | 1004.1 hPa | 0 mm | - | 93 W/m² | - |
| 1777916101 | 22.78° C | 33% | 1003.9 hPa | 0 mm | - | 74 W/m² | - |
* Rain latest hour (hover to see other rain measurements)
** Current wind speed in m/s (hover to see current wind gust speed)